Wind_Speed
14 11 13 14 22 27 29 31 32 35 36 41 44 43 40 37 35 34 27 25 22 21 16 25 20 19 21 16 12 8 8 8 18 21 20 24 21 24 25 23 22 27 31 38 41
16 13 15 14 22 27 28 31 34 34 33 35 38 40 40 37 35 32 25 20 19 15 15 23 16 17 11 5 8 11 10 10 14 15 15 19 21 21 23 22 27 29 31 29 33
19 16 16 16 21 27 28 32 33 35 33 34 35 37 37 32 33 30 22 17 13 13 15 18 11 10 8 8 7 10 11 10 11 11 10 14 18 18 20 19 20 25 29 30 26
22 19 18 17 20 27 28 34 36 35 33 32 34 32 33 32 30 27 23 19 11 9 9 16 14 10 7 5 4 5 9 11 9 8 6 7 12 15 15 15 21 23 24 27 24
26 22 20 20 20 28 30 34 35 36 35 32 30 31 30 30 29 27 24 20 17 12 11 7 10 8 10 9 7 9 10 11 10 7 5 2 5 9 10 13 14 16 20 21 23
29 25 22 22 20 29 31 33 34 36 34 34 32 34 32 31 29 27 24 20 18 13 10 7 9 3 6 8 9 5 7 11 10 9 6 3 3 6 7 9 9 12 15 18 16
32 28 25 25 23 27 30 29 33 33 34 34 32 34 34 31 28 26 23 21 18 12 12 11 8 2 7 2 6 6 4 10 13 10 9 6 5 9 8 2 4 9 10 12 11
36 31 28 27 25 25 30 28 31 33 34 32 32 34 33 30 26 25 22 19 15 14 14 12 9 4 6 2 4 8 4 5 11 11 9 11 8 11 12 8 8 13 13 13 13
39 34 31 29 27 25 28 30 29 31 31 30 29 29 29 28 27 25 21 17 16 15 13 16 11 7 5 5 2 3 12 9 9 13 13 14 16 16 14 14 15 15 18 16 14
40 37 33 30 30 27 25 28 28 28 29 30 29 27 27 27 26 23 22 18 18 16 15 15 10 8 6 7 6 16 8 12 13 15 18 18 18 18 15 14 16 18 19 14 12
40 40 36 33 31 30 27 25 27 27 26 26 26 26 25 23 22 19 19 18 20 18 18 17 14 12 12 14 13 17 22 20 19 20 21 19 19 20 19 19 21 20 16 11 10
38 41 38 35 33 32 31 28 26 27 28 28 26 27 28 27 25 25 25 24 23 21 21 20 18 19 19 20 19 21 20 20 24 28 25 26 26 24 24 24 23 24 26 22 21
37 41 40 38 35 32 32 32 31 28 26 27 27 27 29 29 28 27 28 28 26 25 25 27 26 24 25 23 24 28 29 27 29 30 30 29 31 31 28 23 25 27 27 27 28
37 40 41 39 37 34 33 33 34 32 30 28 28 27 27 27 30 30 30 31 30 29 28 27 26 27 27 27 24 28 29 31 30 28 31 29 34 37 32 30 30 29 30 29 27
38 39 40 39 39 38 35 32 32 34 34 32 30 29 29 28 27 29 29 30 31 30 30 26 26 27 28 26 24 31 29 28 31 31 32 36 37 37 39 41 40 35 38 33 40
39 39 40 40 37 37 35 33 31 32 32 33 35 34 33 33 32 32 32 33 33 33 31 32 33 32 31 32 34 34 39 38 42 46 39 38 43 45 42 42 47 49 46 39 34
36 36 37 38 36 33 33 33 34 33 33 32 31 32 34 36 37 37 38 38 39 38 38 40 41 42 44 46 45 47 48 47 50 46 46 47 49 52 54 52 51 53 53 52 48
31 31 34 35 33 33 31 32 34 32 31 31 32 30 31 32 34 35 37 38 42 44 45 46 48 50 52 54 51 51 51 54 56 59 58 57 59 62 65 68 70 71 69 57 57
26 26 28 31 30 28 30 31 30 31 29 32 31 31 31 30 31 33 36 37 38 40 43 45 49 51 54 59 60 63 65 66 66 64 65 68 71 71 67 70 75 75 74 69 55
23 22 22 23 23 22 23 22 23 24 26 28 28 27 27 28 28 29 30 32 34 35 36 38 39 44 49 52 54 57 58 61 64 65 67 71 76 80 80 78 72 74 77 72 65
22 21 21 22 22 22 23 23 23 22 21 21 22 22 21 21 22 23 24 26 28 29 31 32 35 39 44 48 50 52 53 54 58 60 62 61 66 66 66 65 66 69 72 75 76
22 22 21 20 20 20 20 19 18 17 16 15 16 16 15 16 18 20 24 26 28 31 32 35 37 40 44 48 51 55 58 60 61 62 63 64 67 70 71 71 72 69 72 74 76
26 25 25 24 22 20 18 17 16 16 15 15 16 16 15 16 17 18 20 24 28 32 35 38 41 44 48 53 55 56 60 63 65 64 65 65 67 70 73 72 70 72 73 75 76
21 20 19 18 19 18 17 16 15 15 16 15 14 13 14 14 19 22 25 27 31 33 35 39 42 46 50 51 55 58 62 64 64 63 61 63 65 67 69 72 72 72 72 74 76
19 18 18 17 16 15 14 14 13 15 15 14 14 15 18 21 24 28 30 31 33 33 36 40 43 46 50 52 55 60 64 66 65 67 63 63 63 68 68 70 70 70 69 67 69
16 16 15 14 13 13 12 12 13 12 13 15 18 21 24 28 29 30 32 32 33 37 39 43 45 45 47 48 51 55 61 61 64 65 64 59 60 61 59 57 57 58 60 61 61
13 13 13 13 13 13 13 13 13 15 16 19 21 23 27 28 28 29 31 34 38 42 45 46 47 47 47 51 57 59 61 59 59 59 53 48 48 50 50 46 44 45 48 51 51
Wind_Direction
152 148 128 115 144 154 145 145 147 145 145 146 149 153 151 148 146 141 133 142 143 132 120 106 128 144 146 143 161 140 137 121 102 100 84 75 73 68 67 73 67 57 51 52 49
159 156 142 125 149 157 154 153 153 154 151 152 154 156 156 154 155 146 146 147 132 122 122 119 117 129 136 141 174 163 134 124 103 103 94 78 69 69 65 67 64 54 42 42 52
165 161 152 133 151 158 160 159 156 160 154 156 158 160 159 161 160 163 158 154 146 120 128 112 133 140 156 169 160 168 145 145 117 115 98 80 75 69 68 67 60 52 51 47 47
171 165 161 142 155 157 161 161 161 162 162 159 158 161 167 173 173 183 176 177 174 147 146 126 115 127 180 171 210 201 174 160 138 152 116 73 75 78 71 62 47 45 50 50 50
174 168 167 151 156 160 162 165 166 168 167 167 167 169 169 169 171 172 175 182 184 172 162 138 124 167 163 182 170 180 207 177 201 176 144 124 67 72 60 52 52 40 36 48 47
177 172 171 159 157 164 167 168 171 171 174 176 175 173 172 173 174 178 182 183 180 171 162 155 137 179 130 188 187 194 197 222 207 201 198 217 357 6 5 15 10 33 27 21 42
179 174 173 169 160 167 170 172 179 179 176 178 181 178 178 179 181 180 181 184 184 177 176 183 165 219 347 1 193 246 261 228 237 222 218 243 289 320 341 313 17 349 4 6 6
180 176 175 177 168 170 172 173 175 180 183 186 186 185 180 185 189 188 187 194 181 189 200 182 178 221 238 206 160 229 260 303 219 223 243 264 270 292 295 276 294 326 321 335 326
181 178 179 180 177 172 178 178 178 182 185 190 189 189 189 192 195 199 200 191 195 202 200 187 191 199 202 177 157 263 255 291 259 246 247 260 280 281 286 277 292 306 311 314 306
183 182 182 182 183 179 179 183 186 186 185 191 194 200 205 201 207 206 204 203 202 200 204 210 222 215 216 221 280 285 267 265 261 258 262 267 273 276 281 274 283 294 305 312 322
188 186 186 187 185 187 184 186 190 193 194 194 199 205 210 219 217 212 212 213 212 221 230 220 214 229 259 246 258 239 264 258 254 276 267 260 262 268 266 273 281 282 296 302 308
191 189 190 188 190 190 192 191 194 197 201 205 208 205 210 219 222 224 220 223 220 225 237 242 248 257 253 258 249 254 268 265 270 273 266 262 263 264 259 261 274 276 301 280 285
195 193 195 193 194 194 196 199 198 200 205 206 211 215 220 219 219 225 230 231 236 235 244 256 260 262 260 249 251 253 263 262 261 272 271 267 260 265 260 254 279 283 290 279 279
197 196 198 199 200 203 201 203 205 206 208 209 212 219 221 224 224 227 230 235 239 243 247 251 259 263 246 250 269 266 270 266 254 265 272 277 271 274 270 264 279 277 281 276 276
199 201 200 203 206 207 207 208 210 211 214 216 218 222 227 226 231 234 238 240 242 247 251 251 253 255 248 251 260 260 265 264 265 263 266 270 264 262 255 263 272 276 285 281 280
201 205 204 206 210 212 215 216 216 217 218 220 224 226 231 237 233 237 241 244 246 248 248 251 251 246 248 250 249 256 260 259 264 271 262 254 257 259 259 266 275 278 276 274 270
203 206 206 208 210 212 217 222 225 224 223 226 227 231 234 240 243 245 247 249 249 251 252 253 251 250 253 255 255 258 260 263 262 264 257 255 256 258 261 269 270 272 272 275 269
203 205 209 212 212 216 220 223 227 230 236 234 235 235 239 242 247 251 253 254 257 259 257 255 256 257 256 254 252 255 260 266 266 266 259 258 261 264 266 269 273 278 278 273 273
198 203 207 212 216 218 223 230 232 237 240 243 245 247 246 246 250 255 257 260 260 260 262 266 266 265 262 260 261 262 262 263 262 262 264 265 266 268 266 267 271 273 274 273 270
184 188 191 195 198 205 218 224 229 235 239 244 244 244 249 255 257 255 261 266 267 266 267 267 269 271 272 273 273 272 272 271 270 269 270 268 266 267 268 268 270 272 269 263 267
174 176 177 182 188 195 204 208 214 221 228 238 244 245 247 250 254 259 262 263 264 270 273 273 273 273 277 278 278 277 276 274 274 276 275 274 274 274 272 272 271 270 266 265 265
175 178 180 186 194 196 204 206 208 214 218 219 227 233 238 249 258 264 268 270 274 276 278 279 280 283 284 284 285 285 285 284 282 281 280 279 278 275 273 272 270 269 266 264 260
161 164 167 169 170 173 178 184 194 204 212 223 228 235 240 242 247 258 270 276 280 282 283 284 284 285 287 288 287 287 287 287 287 286 286 284 284 281 278 276 274 273 271 266 260
151 158 161 168 174 180 189 197 200 205 210 221 230 240 249 265 269 272 277 281 283 286 290 293 294 295 295 295 294 293 293 294 295 294 293 290 285 280 277 274 274 270 269 270 268
163 167 172 179 182 184 194 198 206 220 224 233 244 260 274 281 286 288 291 291 292 294 299 301 301 302 301 301 299 298 297 298 299 297 295 290 285 279 275 272 271 270 268 264 264
166 172 179 189 194 198 206 214 218 229 249 257 262 271 279 285 290 294 294 297 299 301 305 307 305 304 302 300 297 298 298 300 302 301 299 292 285 282 279 277 275 273 271 266 261
188 197 202 208 214 219 228 234 242 254 259 266 273 279 284 288 291 294 297 299 303 306 307 309 307 306 306 306 307 305 309 311 308 308 303 297 291 286 281 278 277 274 270 269 270
Height
10959 10960 10961 10962 10963 10964 10967 10970 10973 10977 10980 10982 10984 10987 10990 10994 10998 11001 11004 11006 11008 11011 11013 11014 11016 11016 11017 11019 11021 11021 11023 11024 11023 11021 11020 11018 11017 11014 11011 11011 11009 11005 11002 10999 10993
10959 10960 10961 10962 10964 10965 10968 10971 10975 10979 10982 10985 10988 10991 10994 10998 11001 11004 11006 11007 11011 11015 11016 11017 11020 11020 11022 11023 11023 11024 11025 11025 11025 11024 11024 11022 11019 11018 11014 11013 11013 11011 11006 11003 11001
10958 10960 10961 10963 10964 10966 10969 10973 10976 10980 10984 10988 10992 10995 10997 11001 11004 11006 11007 11010 11012 11015 11017 11020 11021 11022 11023 11024 11025 11025 11026 11026 11027 11026 11025 11025 11024 11023 11020 11019 11016 11013 11012 11009 11006
10957 10959 10961 10963 10965 10967 10970 10974 10977 10981 10986 10989 10992 10996 10999 11002 11006 11007 11010 11012 11015 11017 11019 11021 11022 11025 11024 11025 11025 11026 11027 11028 11032 11027 11026 11026 11026 11025 11025 11023 11017 11014 11014 11014 11012
10955 10958 10961 10963 10965 10968 10971 10975 10978 10982 10986 10990 10994 10997 11000 11003 11005 11008 11011 11013 11016 11018 11021 11021 11022 11023 11024 11024 11024 11026 11028 11028 11029 11029 11027 11027 11027 11026 11026 11023 11023 11021 11018 11016 11016
10954 10957 10960 10964 10966 10968 10972 10975 10979 10983 10987 10991 10994 10997 11000 11003 11005 11009 11012 11014 11016 11018 11020 11021 11022 11022 11023 11023 11023 11025 11027 11027 11027 11027 11027 11028 11028 11028 11028 11028 11027 11025 11022 11019 11018
10952 10956 10960 10964 10966 10969 10972 10976 10979 10984 10988 10992 10995 10998 11001 11003 11005 11009 11012 11014 11017 11017 11018 11019 11020 11021 11021 11021 11022 11023 11025 11025 11026 11025 11025 11025 11027 11028 11028 11027 11025 11024 11023 11023 11022
10950 10955 10959 10963 10966 10969 10972 10976 10980 10984 10989 10992 10995 10998 11002 11005 11007 11009 11012 11014 11015 11015 11017 11019 11021 11022 11021 11022 11023 11022 11023 11023 11024 11024 11025 11023 11026 11027 11026 11025 11024 11023 11022 11021 11021
10948 10953 10958 10962 10965 10969 10972 10975 10980 10985 10989 10992 10996 11000 11002 11004 11006 11009 11012 11014 11014 11015 11019 11020 11020 11020 11022 11021 11021 11021 11021 11023 11023 11022 11022 11023 11024 11024 11023 11022 11021 11020 11019 11019 11019
10946 10952 10957 10961 10965 10969 10973 10976 10980 10984 10988 10992 10995 11000 11002 11004 11006 11008 11011 11013 11015 11016 11017 11018 11018 11019 11020 11019 11017 11016 11019 11020 11020 11021 11023 11023 11023 11021 11019 11019 11019 11018 11017 11017 11015
10943 10949 10955 10960 10964 10969 10972 10976 10981 10985 10989 10992 10994 10998 11001 11004 11006 11009 11010 11013 11014 11015 11015 11015 11016 11016 11017 11015 11014 11013 11015 11015 11015 11018 11018 11020 11018 11017 11016 11016 11015 11016 11016 11015 11013
10939 10946 10952 10959 10963 10967 10972 10976 10980 10983 10987 10990 10994 10997 10998 11000 11003 11006 11007 11008 11009 11012 11012 11013 11014 11013 11013 11011 11011 11011 11012 11012 11011 11013 11013 11014 11013 11012 11012 11011 11012 11012 11012 11010 11010
10937 10943 10950 10956 10961 10966 10970 10974 10977 10981 10985 10988 10991 10994 10995 10997 10999 11002 11004 11005 11007 11009 11009 11010 11010 11009 11008 11007 11007 11008 11008 11007 11006 11005 11006 11007 11007 11006 11004 11007 11007 11007 11007 11005 11004
10934 10940 10946 10952 10959 10962 10967 10971 10975 10978 10982 10986 10989 10990 10992 10994 10996 10997 10999 11001 11003 11005 11006 11006 11005 11004 11002 11001 11001 10999 10999 10998 10999 10999 10998 11000 11001 10998 10999 11000 11000 11001 11002 11000 10997
10931 10937 10943 10949 10953 10958 10964 10968 10972 10976 10979 10982 10986 10988 10989 10991 10993 10993 10995 10997 10998 11000 11001 11001 11001 10999 10996 10995 10994 10991 10992 10993 10993 10993 10992 10994 10994 10993 10994 10993 10993 10994 10993 10993 10990
10929 10934 10940 10945 10950 10956 10961 10966 10969 10973 10976 10978 10981 10984 10986 10986 10989 10989 10990 10992 10993 10994 10996 10995 10993 10993 10992 10990 10986 10986 10984 10984 10984 10985 10984 10986 10985 10984 10986 10986 10984 10985 10987 10985 10984
10926 10932 10937 10942 10948 10953 10958 10961 10964 10968 10971 10975 10978 10980 10982 10983 10984 10985 10985 10986 10987 10988 10988 10987 10986 10985 10983 10980 10979 10979 10978 10977 10976 10976 10977 10977 10976 10976 10976 10978 10976 10973 10975 10975 10977
10924 10930 10934 10940 10946 10950 10954 10956 10960 10963 10967 10969 10972 10975 10978 10979 10979 10979 10980 10981 10979 10978 10980 10979 10978 10975 10975 10972 10973 10972 10971 10970 10969 10968 10967 10966 10967 10966 10967 10967 10965 10961 10962 10964 10960
10923 10927 10932 10938 10943 10947 10950 10952 10955 10958 10961 10964 10967 10969 10971 10974 10974 10973 10972 10974 10974 10972 10970 10969 10966 10966 10964 10964 10964 10962 10961 10960 10959 10957 10956 10954 10953 10950 10953 10951 10948 10946 10947 10948 10948
10921 10925 10930 10935 10940 10944 10947 10951 10954 10955 10957 10960 10962 10964 10965 10966 10967 10968 10967 10966 10965 10964 10963 10963 10960 10957 10952 10951 10950 10948 10947 10945 10943 10943 10942 10939 10938 10934 10935 10935 10933 10930 10929 10933 10931
10922 10925 10930 10933 10937 10940 10943 10945 10948 10951 10954 10957 10958 10959 10960 10961 10961 10961 10961 10961 10959 10958 10957 10956 10953 10950 10944 10939 10937 10936 10934 10932 10928 10926 10925 10924 10916 10917 10914 10916 10915 10911 10910 10911 10915
10921 10925 10929 10933 10936 10938 10941 10944 10947 10949 10951 10953 10955 10956 10957 10958 10958 10957 10956 10955 10954 10952 10951 10948 10945 10940 10934 10930 10927 10922 10919 10915 10914 10912 10909 10907 10902 10898 10894 10894 10894 10894 10892 10892 10893
10921 10924 10927 10930 10934 10938 10941 10943 10946 10948 10949 10951 10951 10952 10954 10955 10955 10954 10952 10950 10948 10945 10943 10939 10935 10931 10925 10918 10914 10909 10904 10899 10896 10895 10891 10890 10884 10877 10869 10867 10873 10874 10871 10869 10869
10925 10928 10932 10934 10936 10938 10940 10942 10944 10946 10947 10947 10948 10949 10950 10949 10949 10948 10946 10944 10941 10938 10934 10930 10925 10919 10912 10908 10900 10893 10885 10881 10878 10876 10873 10866 10861 10854 10847 10844 10845 10846 10847 10844 10846
10926 10928 10931 10933 10935 10937 10939 10940 10942 10943 10944 10944 10944 10944 10943 10943 10942 10940 10937 10935 10932 10930 10927 10921 10916 10909 10899 10894 10887 10879 10872 10865 10860 10853 10852 10844 10837 10826 10828 10823 10821 10817 10817 10821 10821
10926 10928 10929 10931 10932 10934 10936 10937 10939 10940 10940 10940 10940 10939 10938 10936 10934 10932 10929 10927 10923 10920 10918 10912 10906 10899 10890 10885 10878 10870 10861 10855 10845 10834 10825 10820 10813 10805 10804 10803 10802 10800 10797 10796 10797
10925 10926 10927 10928 10929 10931 10932 10933 10935 10935 10936 10935 10934 10934 10931 10929 10927 10925 10922 10919 10916 10912 10907 10901 10895 10889 10881 10870 10860 10854 10846 10841 10830 10814 10805 10799 10794 10790 10787 10787 10785 10784 10783 10784 10788